Skip Page Navigation
NASA JPL Caltech
NASA Logo - Jet Propulsion Laboratory + View the NASA Portal
+ Near-Earth Object (NEO) Program
Search JPL
JPL Home Earth Solar System Stars & Galaxies Technology
JPL Solar System Dynamics
BODIES ORBITS EPHEMERIDES TOOLS PHYSICAL DATA DISCOVERY FAQ SITE MAP
JPL Small-Body Database Browser
Search: [ help ]  
11971 (1994 UJ2)
Classification: Main-belt Asteroid          SPK-ID: 2011971
Ephemeris | Orbit Diagram | Orbital Elements | Physical Parameters | Discovery Circumstances | Close-Approach Data ]

[ show orbit diagram ]
Orbital Elements at Epoch 2457000.5 (2014-Dec-09.0) TDB
Reference: JPL 9 (heliocentric ecliptic J2000)
 Element Value Uncertainty (1-sigma)   Units 
e .1523045940766223 1.0768e-07  
a 2.978307422007503 3.4211e-08 AU
q 2.524697519063259 3.3699e-07 AU
i 14.00331874098231 8.4425e-06 deg
node 55.6886102745003 3.6823e-05 deg
peri 326.2575283739309 4.4147e-05 deg
M 347.5084181554283 2.7542e-05 deg
tp 2457065.642984176784
(2015-Feb-12.14298418)
0.00014417 JED
period 1877.38227195247
5.14
3.2347e-05
8.856e-08
d
yr
n .1917563649014334 3.304e-09 deg/d
Q 3.431917324951748 3.9421e-08 AU
  Orbit Determination Parameters
   # obs. used (total)      819  
   data-arc span      16794 days (45.98 yr)  
   first obs. used      1968-10-15  
   last obs. used      2014-10-08  
   planetary ephem.      DE431  
   SB-pert. ephem.      SB431-BIG16  
   condition code      0  
   fit RMS      .50139  
   data source      ORB  
   producer      Otto Matic  
   solution date      2014-Nov-10 13:16:12  

Additional Information
 Earth MOID = 1.54187 AU 
 T_jup = 3.198 
[ show covariance matrix ]

Ephemeris | Orbit Diagram | Orbital Elements | Physical Parameters | Discovery Circumstances | Close-Approach Data ]

Physical Parameter Table
Parameter Symbol Value Units Sigma Reference Notes
absolute magnitude H 12.6 mag n/a MPO313516  

11971 (1994 UJ2)          Discovered 1994-Oct-31 by Ueda, S., Kaneda, H. at Kushiro (399)
Reference: 19991026/Numbers.arcLast Updated: 2004-04-19

[ show close-approach data ]
Alternate Designations
 1994 UJ2 = 1968 TF = 1979 YU9 = 1989 UR6 = 1989 YL8 
Ephemeris | Orbit Diagram | Orbital Elements | Physical Parameters | Discovery Circumstances | Close-Approach Data ]
ABOUT SSD CREDITS/AWARDS PRIVACY/COPYRIGHT GLOSSARY LINKS
FirstGov 2014-Dec-21 09:57 UT
(server date/time)  
NASA Home Page
Site Manager:   Donald K. Yeomans
Webmaster  Alan B. Chamberlin